Hourly Weather Holubivka

Today, 17 April, Saturday

Time Temperature Precipitation Wind Pressure Humidity
00:00 +4°C° 0 mm 3 mps 746 mmHg 87%
01:00 +5°C° 0 mm 2 mps 746 mmHg 90%
02:00 +4°C° 0 mm 2 mps 746 mmHg 93%
03:00 +4°C° 0 mm 2 mps 746 mmHg 93%
04:00 +4°C° 0 mm 2 mps 746 mmHg 92%
05:00 +3°C° 0 mm 2 mps 746 mmHg 92%
06:00 +4°C° 0 mm 3 mps 747 mmHg 82%
07:00 +5°C° 0 mm 3 mps 747 mmHg 72%
08:00 +7°C° 0 mm 4 mps 747 mmHg 63%
09:00 +7°C° 0 mm 4 mps 747 mmHg 62%
10:00 +7°C° 0 mm 4 mps 747 mmHg 61%
11:00 +8°C° 0 mm 5 mps 747 mmHg 60%
12:00 +8°C° 0 mm 4 mps 747 mmHg 59%
13:00 +8°C° 0 mm 4 mps 747 mmHg 59%
14:00 +8°C° 0 mm 4 mps 747 mmHg 58%
15:00 +8°C° 0 mm 4 mps 747 mmHg 58%
16:00 +10°C° 0 mm 4 mps 747 mmHg 58%
17:00 +10°C° 0 mm 3 mps 747 mmHg 58%
18:00 +9°C° 0 mm 3 mps 748 mmHg 62%
19:00 +8°C° 0 mm 2 mps 748 mmHg 65%
20:00 +8°C° 0 mm 1 mps 748 mmHg 68%
21:00 +8°C° 0 mm 1 mps 748 mmHg 67%
22:00 +8°C° 0 mm 1 mps 748 mmHg 66%
23:00 +8°C° 0 mm 1 mps 747 mmHg 66%

Tomorrow, 18 April, Sunday

Time Temperature Precipitation Wind Pressure Humidity
00:00 +8°C° 0 mm 1 mps 747 mmHg 66%
01:00 +8°C° 0 mm 1 mps 747 mmHg 67%
02:00 +8°C° 0 mm 1 mps 747 mmHg 67%
03:00 +8°C° 0 mm 1 mps 747 mmHg 68%
04:00 +7°C° 0 mm 2 mps 747 mmHg 70%
05:00 +7°C° 0 mm 2 mps 747 mmHg 71%
06:00 +8°C° 0 mm 2 mps 747 mmHg 66%
07:00 +9°C° 0 mm 2 mps 747 mmHg 61%
08:00 +11°C° 0 mm 3 mps 747 mmHg 56%
09:00 +12°C° 0 mm 3 mps 747 mmHg 51%
10:00 +13°C° 0 mm 3 mps 747 mmHg 46%
11:00 +14°C° 0 mm 3 mps 747 mmHg 41%
12:00 +14°C° 0 mm 3 mps 747 mmHg 40%
13:00 +16°C° 0 mm 3 mps 746 mmHg 38%
14:00 +16°C° 0 mm 3 mps 746 mmHg 37%
15:00 +16°C° 0 mm 3 mps 746 mmHg 40%
16:00 +16°C° 0 mm 2 mps 746 mmHg 42%
17:00 +15°C° 0 mm 2 mps 745 mmHg 44%
18:00 +14°C° 0 mm 2 mps 745 mmHg 47%
19:00 +14°C° 0 mm 2 mps 745 mmHg 51%
20:00 +13°C° 0 mm 2 mps 746 mmHg 54%
21:00 +12°C° 0 mm 2 mps 746 mmHg 58%
22:00 +12°C° 0 mm 2 mps 746 mmHg 62%
23:00 +10°C° 0 mm 2 mps 746 mmHg 67%

Day after tomorrow, 19 April, Monday

Time Temperature Precipitation Wind Pressure Humidity
00:00 +10°C° 0.3 mm 2 mps 745 mmHg 73%
01:00 +9°C° 0.3 mm 2 mps 745 mmHg 79%
02:00 +9°C° 0.3 mm 2 mps 745 mmHg 85%
03:00 +9°C° 0.7 mm 3 mps 745 mmHg 87%
04:00 +8°C° 0.7 mm 3 mps 744 mmHg 89%
05:00 +8°C° 0.7 mm 3 mps 744 mmHg 91%
06:00 +7°C° 0.2 mm 4 mps 744 mmHg 91%
07:00 +7°C° 0.2 mm 4 mps 744 mmHg 90%
08:00 +7°C° 0.2 mm 4 mps 744 mmHg 90%
09:00 +8°C° 0 mm 4 mps 744 mmHg 88%
10:00 +8°C° 0 mm 4 mps 744 mmHg 87%
11:00 +8°C° 0 mm 4 mps 743 mmHg 85%
12:00 +10°C° 0 mm 4 mps 743 mmHg 83%
13:00 +10°C° 0 mm 4 mps 743 mmHg 80%
14:00 +11°C° 0 mm 4 mps 743 mmHg 78%
15:00 +11°C° 0 mm 3 mps 743 mmHg 78%
16:00 +11°C° 0 mm 3 mps 743 mmHg 79%
17:00 +11°C° 0 mm 3 mps 743 mmHg 80%
18:00 +10°C° 0 mm 3 mps 742 mmHg 83%
19:00 +10°C° 0 mm 3 mps 742 mmHg 86%
20:00 +9°C° 0 mm 3 mps 742 mmHg 89%
21:00 +9°C° 0 mm 3 mps 741 mmHg 90%
22:00 +9°C° 0 mm 3 mps 741 mmHg 91%
23:00 +9°C° 0 mm 3 mps 740 mmHg 92%

20 April, Tuesday

Time Temperature Precipitation Wind Pressure Humidity
00:00 +9°C° 0 mm 3 mps 740 mmHg 92%
01:00 +8°C° 0 mm 3 mps 739 mmHg 93%
02:00 +7°C° 0 mm 4 mps 738 mmHg 93%
03:00 +8°C° 0.2 mm 4 mps 738 mmHg 94%
04:00 +8°C° 0.2 mm 4 mps 737 mmHg 95%
05:00 +8°C° 0.2 mm 5 mps 736 mmHg 96%
06:00 +8°C° 1.8 mm 5 mps 735 mmHg 96%
07:00 +9°C° 1.8 mm 6 mps 734 mmHg 96%
08:00 +10°C° 1.8 mm 7 mps 733 mmHg 96%
09:00 +11°C° 0.3 mm 8 mps 732 mmHg 90%
10:00 +13°C° 0.3 mm 9 mps 731 mmHg 83%
11:00 +14°C° 0.3 mm 10 mps 730 mmHg 77%
12:00 +14°C° 0.2 mm 10 mps 730 mmHg 76%
13:00 +13°C° 0.2 mm 9 mps 730 mmHg 75%
14:00 +13°C° 0.2 mm 9 mps 730 mmHg 75%
15:00 +12°C° 0.2 mm 9 mps 730 mmHg 73%
16:00 +12°C° 0.2 mm 10 mps 730 mmHg 72%
17:00 +11°C° 0.2 mm 10 mps 731 mmHg 70%
18:00 +9°C° 0.1 mm 10 mps 731 mmHg 74%
19:00 +8°C° 0.1 mm 10 mps 731 mmHg 77%
20:00 +7°C° 0.1 mm 10 mps 732 mmHg 81%
21:00 +7°C° 0.1 mm 9 mps 732 mmHg 83%
22:00 +7°C° 0.1 mm 9 mps 733 mmHg 86%
23:00 +7°C° 0.1 mm 8 mps 733 mmHg 89%

21 April, Wednesday

Time Temperature Precipitation Wind Pressure Humidity
00:00 +7°C° 0.1 mm 8 mps 734 mmHg 88%
01:00 +6°C° 0.1 mm 8 mps 736 mmHg 87%
02:00 +6°C° 0.1 mm 8 mps 737 mmHg 86%
03:00 +6°C° 0.1 mm 8 mps 738 mmHg 85%
04:00 +6°C° 0.1 mm 7 mps 739 mmHg 84%
05:00 +6°C° 0.1 mm 7 mps 740 mmHg 83%
06:00 +8°C° 0 mm 7 mps 741 mmHg 80%
07:00 +8°C° 0 mm 7 mps 741 mmHg 77%
08:00 +9°C° 0 mm 7 mps 742 mmHg 74%
09:00 +9°C° 0.1 mm 7 mps 743 mmHg 71%
10:00 +10°C° 0.1 mm 7 mps 743 mmHg 67%
11:00 +11°C° 0.1 mm 7 mps 744 mmHg 64%
12:00 +13°C° 0.2 mm 6 mps 744 mmHg 60%
13:00 +13°C° 0.2 mm 6 mps 744 mmHg 57%
14:00 +14°C° 0.2 mm 6 mps 744 mmHg 53%
15:00 +14°C° 0 mm 5 mps 745 mmHg 54%
16:00 +14°C° 0 mm 5 mps 745 mmHg 56%
17:00 +13°C° 0 mm 4 mps 745 mmHg 57%
18:00 +13°C° 0 mm 3 mps 746 mmHg 61%
19:00 +13°C° 0 mm 2 mps 746 mmHg 65%
20:00 +12°C° 0 mm 1 mps 747 mmHg 70%
21:00 +11°C° 0 mm 1 mps 747 mmHg 72%
22:00 +11°C° 0 mm 1 mps 747 mmHg 74%
23:00 +11°C° 0 mm 1 mps 747 mmHg 76%

22 April, Thursday

Time Temperature Precipitation Wind Pressure Humidity
00:00 +11°C° 0.1 mm 1 mps 747 mmHg 77%
01:00 +10°C° 0.1 mm 1 mps 747 mmHg 79%
02:00 +10°C° 0.1 mm 1 mps 747 mmHg 80%
03:00 +10°C° 0 mm 1 mps 748 mmHg 81%
04:00 +10°C° 0 mm 1 mps 748 mmHg 82%
05:00 +9°C° 0 mm 1 mps 748 mmHg 83%
06:00 +10°C° 0.2 mm 1 mps 748 mmHg 77%
07:00 +12°C° 0.2 mm 1 mps 749 mmHg 72%
08:00 +13°C° 0.2 mm 1 mps 749 mmHg 66%
09:00 +14°C° 0.4 mm 1 mps 749 mmHg 60%
10:00 +15°C° 0.4 mm 1 mps 749 mmHg 54%
11:00 +16°C° 0.4 mm 1 mps 749 mmHg 48%
12:00 +16°C° 0.2 mm 1 mps 749 mmHg 46%
13:00 +18°C° 0.2 mm 1 mps 749 mmHg 43%
14:00 +18°C° 0.2 mm 1 mps 748 mmHg 41%
15:00 +18°C° 0 mm 1 mps 748 mmHg 41%
16:00 +18°C° 0 mm 1 mps 748 mmHg 41%
17:00 +18°C° 0 mm 1 mps 748 mmHg 41%
18:00 +16°C° 0 mm 1 mps 749 mmHg 45%
19:00 +14°C° 0 mm 1 mps 749 mmHg 48%
20:00 +13°C° 0 mm 1 mps 749 mmHg 52%
21:00 +13°C° 0 mm 1 mps 749 mmHg 54%
22:00 +12°C° 0 mm 1 mps 749 mmHg 56%
23:00 +12°C° 0 mm 1 mps 749 mmHg 59%
Show more

We Need Your Consent

Meteoprog and our Service Providers may store and access personal data such as cookies, device identifiers or other similar technologies on your device and process such data to personalise content and ads, as well as provide social media features and to analyse the traffic.

  • Store and/or access information on your device

    Cookies, device identifiers or other information can be stored or accessed on your device for the purposes indicated above.

  • Personalised ads and content, ad and content measurement, audience insights, and products development

    Ads and content can be personalised based on a profile. More data can be added to better personalise ads and content. Ad and content performance can be measured. Insights about the audience who saw the ads and content can be derived. Such data can be used to develop or improve user’s experience, systems and software.

By clicking ‘I Agree’ you will allow the use of indicated cookies, device identifiers, web beacons or other similar technologies. Your settings can be changed in the browser on your device.

For certain purposes, legitimate interests may be relied on, rather than consent. You can read more about this in our Privacy and Cookie Policy.